Year,Month,Day,Hour,Minute,Value (Times are PST for windspeed in km/hr)
2015,08,05,00,00,0.00
2015,08,05,00,01,2.30
2015,08,05,00,02,0.90
2015,08,05,00,03,2.00
2015,08,05,00,04,0.10
2015,08,05,00,05,1.00
2015,08,05,00,06,3.80
2015,08,05,00,07,2.20
2015,08,05,00,08,0.10
2015,08,05,00,09,0.00
2015,08,05,00,10,0.80
2015,08,05,00,11,7.00
2015,08,05,00,12,5.60
2015,08,05,00,13,1.10
2015,08,05,00,14,0.00
2015,08,05,00,15,0.00
2015,08,05,00,16,0.00
2015,08,05,00,17,0.00
2015,08,05,00,18,0.00
2015,08,05,00,19,0.00
2015,08,05,00,20,0.00
2015,08,05,00,21,0.00
2015,08,05,00,22,0.00
2015,08,05,00,23,0.00
2015,08,05,00,24,0.00
2015,08,05,00,25,0.00
2015,08,05,00,26,0.00
2015,08,05,00,27,0.00
2015,08,05,00,28,0.00
2015,08,05,00,29,0.00
2015,08,05,00,30,0.00
2015,08,05,00,31,0.00
2015,08,05,00,32,0.00
2015,08,05,00,33,0.00
2015,08,05,00,34,0.00
2015,08,05,00,35,0.00
2015,08,05,00,36,0.00
2015,08,05,00,37,0.00
2015,08,05,00,38,0.00
2015,08,05,00,39,0.00
2015,08,05,00,40,0.00
2015,08,05,00,41,0.00
2015,08,05,00,42,0.00
2015,08,05,00,43,0.00
2015,08,05,00,44,0.00
2015,08,05,00,45,0.00
2015,08,05,00,46,0.10
2015,08,05,00,47,0.00
2015,08,05,00,48,0.00
2015,08,05,00,49,0.00
2015,08,05,00,50,0.00
2015,08,05,00,51,0.00
2015,08,05,00,52,0.00
2015,08,05,00,53,0.00
2015,08,05,00,54,0.00
2015,08,05,00,55,0.00
2015,08,05,00,56,0.00
2015,08,05,00,57,0.00
2015,08,05,00,58,0.00
2015,08,05,00,59,0.00
2015,08,05,01,00,0.00
2015,08,05,01,01,0.00
2015,08,05,01,02,0.00
2015,08,05,01,03,0.00
2015,08,05,01,04,0.00
2015,08,05,01,05,0.00
2015,08,05,01,06,0.00
2015,08,05,01,07,0.00
2015,08,05,01,08,0.00
2015,08,05,01,09,0.00
2015,08,05,01,10,0.00
2015,08,05,01,11,0.00
2015,08,05,01,12,0.00
2015,08,05,01,13,0.00
2015,08,05,01,14,0.00
2015,08,05,01,15,0.00
2015,08,05,01,16,0.00
2015,08,05,01,17,0.00
2015,08,05,01,18,0.00
2015,08,05,01,19,0.00
2015,08,05,01,20,0.00
2015,08,05,01,21,1.20
2015,08,05,01,22,0.00
2015,08,05,01,23,0.70
2015,08,05,01,24,4.50
2015,08,05,01,25,0.50
2015,08,05,01,26,2.20
2015,08,05,01,27,0.70
2015,08,05,01,28,2.20
2015,08,05,01,29,3.90
2015,08,05,01,30,2.40
2015,08,05,01,31,1.00
2015,08,05,01,32,0.00
2015,08,05,01,33,0.00
2015,08,05,01,34,0.00
2015,08,05,01,35,0.10
2015,08,05,01,36,0.00
2015,08,05,01,37,0.00
2015,08,05,01,38,0.00
2015,08,05,01,39,0.00
2015,08,05,01,40,0.00
2015,08,05,01,41,0.00
2015,08,05,01,42,0.00
2015,08,05,01,43,0.00
2015,08,05,01,44,0.00
2015,08,05,01,45,0.00
2015,08,05,01,46,0.00
2015,08,05,01,47,0.00
2015,08,05,01,48,0.00
2015,08,05,01,49,0.00
2015,08,05,01,50,0.00
2015,08,05,01,51,0.00
2015,08,05,01,52,0.00
2015,08,05,01,53,0.00
2015,08,05,01,54,0.00
2015,08,05,01,55,0.00
2015,08,05,01,56,0.00
2015,08,05,01,57,0.00
2015,08,05,01,58,0.00
2015,08,05,01,59,0.00
2015,08,05,02,00,0.00
2015,08,05,02,01,0.00
2015,08,05,02,02,1.20
2015,08,05,02,03,4.30
2015,08,05,02,04,3.00
2015,08,05,02,05,3.50
2015,08,05,02,06,3.30
2015,08,05,02,07,0.10
2015,08,05,02,08,0.00
2015,08,05,02,09,0.00
2015,08,05,02,10,0.00
2015,08,05,02,11,0.00
2015,08,05,02,12,0.00
2015,08,05,02,13,0.00
2015,08,05,02,14,0.00
2015,08,05,02,15,0.00
2015,08,05,02,16,0.00
2015,08,05,02,17,0.00
2015,08,05,02,18,0.00
2015,08,05,02,19,0.00
2015,08,05,02,20,0.00
2015,08,05,02,21,0.10
2015,08,05,02,22,0.00
2015,08,05,02,23,0.00
2015,08,05,02,24,0.00
2015,08,05,02,25,0.00
2015,08,05,02,26,0.00
2015,08,05,02,27,0.00
2015,08,05,02,28,0.00
2015,08,05,02,29,1.00
2015,08,05,02,30,0.70
2015,08,05,02,31,0.00
2015,08,05,02,32,1.00
2015,08,05,02,33,0.00
2015,08,05,02,34,1.20
2015,08,05,02,35,5.80
2015,08,05,02,36,3.80
2015,08,05,02,37,2.50
2015,08,05,02,38,0.00
2015,08,05,02,39,0.00
2015,08,05,02,40,3.50
2015,08,05,02,41,0.60
2015,08,05,02,42,0.00
2015,08,05,02,43,0.00
2015,08,05,02,44,0.00
2015,08,05,02,45,0.00
2015,08,05,02,46,0.00
2015,08,05,02,47,0.00
2015,08,05,02,48,0.00
2015,08,05,02,49,0.00
2015,08,05,02,50,2.50
2015,08,05,02,51,0.10
2015,08,05,02,52,2.00
2015,08,05,02,53,0.20
2015,08,05,02,54,0.00
2015,08,05,02,55,0.00
2015,08,05,02,56,0.00
2015,08,05,02,57,0.00
2015,08,05,02,58,0.00
2015,08,05,02,59,0.00
2015,08,05,03,00,0.00
2015,08,05,03,01,0.00
2015,08,05,03,02,0.00
2015,08,05,03,03,0.00
2015,08,05,03,04,0.50
2015,08,05,03,05,0.00
2015,08,05,03,06,0.20
2015,08,05,03,07,0.00
2015,08,05,03,08,0.00
2015,08,05,03,09,0.00
2015,08,05,03,10,0.10
2015,08,05,03,11,0.00
2015,08,05,03,12,0.00
2015,08,05,03,13,0.00
2015,08,05,03,14,0.00
2015,08,05,03,15,0.00
2015,08,05,03,16,0.00
2015,08,05,03,17,0.00
2015,08,05,03,18,0.00
2015,08,05,03,19,0.00
2015,08,05,03,20,0.10
2015,08,05,03,21,0.70
2015,08,05,03,22,0.00
2015,08,05,03,23,0.00
2015,08,05,03,24,0.00
2015,08,05,03,25,0.00
2015,08,05,03,26,0.00
2015,08,05,03,27,0.20
2015,08,05,03,28,0.00
2015,08,05,03,29,0.60
2015,08,05,03,30,0.00
2015,08,05,03,31,0.00
2015,08,05,03,32,0.10
2015,08,05,03,33,0.00
2015,08,05,03,34,0.00
2015,08,05,03,35,0.00
2015,08,05,03,36,0.00
2015,08,05,03,37,0.00
2015,08,05,03,38,0.00
2015,08,05,03,39,0.00
2015,08,05,03,40,0.00
2015,08,05,03,41,3.50
2015,08,05,03,42,0.90
2015,08,05,03,43,0.80
2015,08,05,03,44,5.60
2015,08,05,03,45,6.60
2015,08,05,03,46,4.70
2015,08,05,03,47,0.70
2015,08,05,03,48,0.60
2015,08,05,03,49,0.00
2015,08,05,03,50,0.00
2015,08,05,03,51,0.00
2015,08,05,03,52,0.00
2015,08,05,03,53,0.00
2015,08,05,03,54,0.00
2015,08,05,03,55,0.00
2015,08,05,03,56,0.00
2015,08,05,03,57,1.40
2015,08,05,03,58,1.80
2015,08,05,03,59,0.40
2015,08,05,04,00,2.60
2015,08,05,04,01,2.90
2015,08,05,04,02,2.60
2015,08,05,04,03,2.30
2015,08,05,04,04,3.50
2015,08,05,04,05,4.60
2015,08,05,04,06,2.20
2015,08,05,04,07,1.80
2015,08,05,04,08,2.20
2015,08,05,04,09,1.70
2015,08,05,04,10,0.20
2015,08,05,04,11,2.70
2015,08,05,04,12,0.00
2015,08,05,04,13,0.00
2015,08,05,04,14,0.00
2015,08,05,04,15,0.00
2015,08,05,04,16,0.00
2015,08,05,04,17,0.00
2015,08,05,04,18,0.00
2015,08,05,04,19,2.50
2015,08,05,04,20,0.20
2015,08,05,04,21,0.00
2015,08,05,04,22,0.00
2015,08,05,04,23,0.10
2015,08,05,04,24,1.50
2015,08,05,04,25,0.60
2015,08,05,04,26,1.40
2015,08,05,04,27,2.70
2015,08,05,04,28,1.50
2015,08,05,04,29,0.00
2015,08,05,04,30,0.00
2015,08,05,04,31,0.00
2015,08,05,04,32,0.00
2015,08,05,04,33,0.00
2015,08,05,04,34,0.00
2015,08,05,04,35,0.00
2015,08,05,04,36,0.00
2015,08,05,04,37,0.00
2015,08,05,04,38,0.00
2015,08,05,04,39,0.00
2015,08,05,04,40,0.00
2015,08,05,04,41,0.70
2015,08,05,04,42,0.00
2015,08,05,04,43,5.10
2015,08,05,04,44,1.30
2015,08,05,04,45,0.00
2015,08,05,04,46,0.00
2015,08,05,04,47,0.00
2015,08,05,04,48,0.30
2015,08,05,04,49,4.60
2015,08,05,04,50,0.60
2015,08,05,04,51,2.30
2015,08,05,04,52,1.00
2015,08,05,04,53,0.40
2015,08,05,04,54,2.40
2015,08,05,04,55,0.40
2015,08,05,04,56,0.00
2015,08,05,04,57,0.00
2015,08,05,04,58,1.50
2015,08,05,04,59,0.80
2015,08,05,05,00,0.00
2015,08,05,05,01,0.00
2015,08,05,05,02,2.40
2015,08,05,05,03,1.30
2015,08,05,05,04,2.70
2015,08,05,05,05,1.90
2015,08,05,05,06,0.00
2015,08,05,05,07,0.00
2015,08,05,05,08,0.00
2015,08,05,05,09,1.80
2015,08,05,05,10,7.20
2015,08,05,05,11,0.30
2015,08,05,05,12,0.00
2015,08,05,05,13,0.10
2015,08,05,05,14,0.00
2015,08,05,05,15,0.00
2015,08,05,05,16,0.70
2015,08,05,05,17,5.30
2015,08,05,05,18,0.80
2015,08,05,05,19,0.10
2015,08,05,05,20,1.20
2015,08,05,05,21,0.30
2015,08,05,05,22,0.00
2015,08,05,05,23,0.00
2015,08,05,05,24,0.00
2015,08,05,05,25,1.30
2015,08,05,05,26,0.60
2015,08,05,05,27,0.00
2015,08,05,05,28,0.00
2015,08,05,05,29,0.00
2015,08,05,05,30,0.00
2015,08,05,05,31,0.50
2015,08,05,05,32,3.30
2015,08,05,05,33,3.10
2015,08,05,05,34,2.60
2015,08,05,05,35,2.10
2015,08,05,05,36,0.60
2015,08,05,05,37,0.20
2015,08,05,05,38,3.90
2015,08,05,05,39,0.00
2015,08,05,05,40,0.10
2015,08,05,05,41,0.00
2015,08,05,05,42,3.90
2015,08,05,05,43,0.00
2015,08,05,05,44,0.10
2015,08,05,05,45,0.00
2015,08,05,05,46,0.00
2015,08,05,05,47,0.50
2015,08,05,05,48,2.60
2015,08,05,05,49,2.90
2015,08,05,05,50,1.50
2015,08,05,05,51,2.30
2015,08,05,05,52,3.00
2015,08,05,05,53,3.40
2015,08,05,05,54,1.10
2015,08,05,05,55,0.00
2015,08,05,05,56,0.00
2015,08,05,05,57,0.00
2015,08,05,05,58,0.00
2015,08,05,05,59,0.00
2015,08,05,06,00,0.00
2015,08,05,06,01,0.00
2015,08,05,06,02,0.00
2015,08,05,06,03,3.10
2015,08,05,06,04,0.20
2015,08,05,06,05,0.60
2015,08,05,06,06,5.90
2015,08,05,06,07,1.60
2015,08,05,06,08,0.20
2015,08,05,06,09,0.00
2015,08,05,06,10,0.00
2015,08,05,06,11,0.00
2015,08,05,06,12,1.10
2015,08,05,06,13,1.30
2015,08,05,06,14,0.10
2015,08,05,06,15,0.00
2015,08,05,06,16,2.40
2015,08,05,06,17,4.10
2015,08,05,06,18,0.00
2015,08,05,06,19,0.00
2015,08,05,06,20,1.40
2015,08,05,06,21,1.50
2015,08,05,06,22,5.20
2015,08,05,06,23,1.70
2015,08,05,06,24,1.00
2015,08,05,06,25,0.00
2015,08,05,06,26,2.50
2015,08,05,06,27,3.10
2015,08,05,06,28,0.70
2015,08,05,06,29,0.20
2015,08,05,06,30,0.00
2015,08,05,06,31,0.00
2015,08,05,06,32,3.60
2015,08,05,06,33,0.30
2015,08,05,06,34,6.00
2015,08,05,06,35,3.40
2015,08,05,06,36,2.70
2015,08,05,06,37,0.10
2015,08,05,06,38,0.10
2015,08,05,06,39,3.00
2015,08,05,06,40,3.80
2015,08,05,06,41,1.70
2015,08,05,06,42,0.00
2015,08,05,06,43,5.10
2015,08,05,06,44,4.70
2015,08,05,06,45,3.90
2015,08,05,06,46,4.30
2015,08,05,06,47,0.00
2015,08,05,06,48,0.00
2015,08,05,06,49,0.70
2015,08,05,06,50,1.70
2015,08,05,06,51,4.10
2015,08,05,06,52,0.30
2015,08,05,06,53,0.10
2015,08,05,06,54,0.00
2015,08,05,06,55,0.00
2015,08,05,06,56,0.00
2015,08,05,06,57,0.90
2015,08,05,06,58,2.80
2015,08,05,06,59,0.60
2015,08,05,07,00,7.60
2015,08,05,07,01,3.20
2015,08,05,07,02,1.30
2015,08,05,07,03,3.10
2015,08,05,07,04,3.70
2015,08,05,07,05,1.80
2015,08,05,07,06,0.10
2015,08,05,07,07,0.20
2015,08,05,07,08,4.50
2015,08,05,07,09,0.50
2015,08,05,07,10,0.50
2015,08,05,07,11,0.00
2015,08,05,07,12,0.20
2015,08,05,07,13,3.50
2015,08,05,07,14,2.60
2015,08,05,07,15,1.50
2015,08,05,07,16,0.10
2015,08,05,07,17,0.00
2015,08,05,07,18,0.10
2015,08,05,07,19,0.30
2015,08,05,07,20,4.40
2015,08,05,07,21,8.50
2015,08,05,07,22,4.70
2015,08,05,07,23,0.10
2015,08,05,07,24,1.30
2015,08,05,07,25,1.90
2015,08,05,07,26,3.00
2015,08,05,07,27,4.30
2015,08,05,07,28,6.10
2015,08,05,07,29,5.10
2015,08,05,07,30,1.80
2015,08,05,07,31,0.00
2015,08,05,07,32,0.00
2015,08,05,07,33,0.00
2015,08,05,07,34,0.20
2015,08,05,07,35,3.80
2015,08,05,07,36,1.40
2015,08,05,07,37,7.60
2015,08,05,07,38,0.00
2015,08,05,07,39,1.20
2015,08,05,07,40,0.00
2015,08,05,07,41,0.70
2015,08,05,07,42,2.80
2015,08,05,07,43,4.50
2015,08,05,07,44,0.20
2015,08,05,07,45,3.60
2015,08,05,07,46,3.90
2015,08,05,07,47,0.30
2015,08,05,07,48,0.90
2015,08,05,07,49,4.10
2015,08,05,07,50,4.60
2015,08,05,07,51,0.00
2015,08,05,07,52,0.00
2015,08,05,07,53,0.00
2015,08,05,07,54,2.90
2015,08,05,07,55,6.00
2015,08,05,07,56,6.40
2015,08,05,07,57,5.70
2015,08,05,07,58,8.60
2015,08,05,07,59,2.20
2015,08,05,08,00,0.10
2015,08,05,08,01,0.80
2015,08,05,08,02,2.30
2015,08,05,08,03,0.10
2015,08,05,08,04,2.20
2015,08,05,08,05,0.00
2015,08,05,08,06,0.10
2015,08,05,08,07,2.70
2015,08,05,08,08,2.90
2015,08,05,08,09,1.90
2015,08,05,08,10,0.50
2015,08,05,08,11,0.00
2015,08,05,08,12,3.50
2015,08,05,08,13,2.50
2015,08,05,08,14,1.90
2015,08,05,08,15,0.20
2015,08,05,08,16,1.30
2015,08,05,08,17,0.20
2015,08,05,08,18,0.00
2015,08,05,08,19,0.20
2015,08,05,08,20,0.00
2015,08,05,08,21,0.20
2015,08,05,08,22,0.10
2015,08,05,08,23,1.60
2015,08,05,08,24,5.70
2015,08,05,08,25,2.00
2015,08,05,08,26,0.50
2015,08,05,08,27,1.20
2015,08,05,08,28,2.70
2015,08,05,08,29,0.20
2015,08,05,08,30,5.90
2015,08,05,08,31,3.60
2015,08,05,08,32,2.50
2015,08,05,08,33,0.10
2015,08,05,08,34,0.00
2015,08,05,08,35,0.10
2015,08,05,08,36,0.80
2015,08,05,08,37,1.30
2015,08,05,08,38,0.00
2015,08,05,08,39,2.60
2015,08,05,08,40,0.20
2015,08,05,08,41,0.00
2015,08,05,08,42,0.00
2015,08,05,08,43,1.00
2015,08,05,08,44,0.90
2015,08,05,08,45,2.50
2015,08,05,08,46,0.00
2015,08,05,08,47,2.50
2015,08,05,08,48,2.70
2015,08,05,08,49,2.70
2015,08,05,08,50,5.60
2015,08,05,08,51,4.30
2015,08,05,08,52,1.50
2015,08,05,08,53,2.30
2015,08,05,08,54,2.70
2015,08,05,08,55,5.20
2015,08,05,08,56,1.60
2015,08,05,08,57,0.00
2015,08,05,08,58,0.10
2015,08,05,08,59,0.00
2015,08,05,09,00,0.10
2015,08,05,09,01,0.00
2015,08,05,09,02,0.10
2015,08,05,09,03,1.60
2015,08,05,09,04,3.60
2015,08,05,09,05,3.30
2015,08,05,09,06,3.10
2015,08,05,09,07,4.80
2015,08,05,09,08,0.00
2015,08,05,09,09,0.00
2015,08,05,09,10,1.20
2015,08,05,09,11,1.30
2015,08,05,09,12,0.80
2015,08,05,09,13,4.70
2015,08,05,09,14,5.10
2015,08,05,09,15,0.00
2015,08,05,09,16,0.00
2015,08,05,09,17,0.00
2015,08,05,09,18,0.00
2015,08,05,09,19,0.80
2015,08,05,09,20,2.20
2015,08,05,09,21,1.80
2015,08,05,09,22,0.00
2015,08,05,09,23,0.00
2015,08,05,09,24,0.00
2015,08,05,09,25,0.10
2015,08,05,09,26,0.00
2015,08,05,09,27,0.50
2015,08,05,09,28,1.80
2015,08,05,09,29,1.20
2015,08,05,09,30,3.80
2015,08,05,09,31,2.70
2015,08,05,09,32,0.40
2015,08,05,09,33,1.60
2015,08,05,09,34,2.40
2015,08,05,09,35,0.00
2015,08,05,09,36,2.90
2015,08,05,09,37,0.00
2015,08,05,09,38,3.10
2015,08,05,09,39,5.00
2015,08,05,09,40,5.40
2015,08,05,09,41,0.20
2015,08,05,09,42,0.80
2015,08,05,09,43,5.10
2015,08,05,09,44,2.90
2015,08,05,09,45,4.20
2015,08,05,09,46,2.80
2015,08,05,09,47,8.00
2015,08,05,09,48,7.10
2015,08,05,09,49,2.30
2015,08,05,09,50,2.40
2015,08,05,09,51,0.00
2015,08,05,09,52,3.90
2015,08,05,09,53,3.90
2015,08,05,09,54,3.10
2015,08,05,09,55,2.70
2015,08,05,09,56,6.00
2015,08,05,09,57,0.20
2015,08,05,09,58,0.80
2015,08,05,09,59,0.10
2015,08,05,10,00,0.20
2015,08,05,10,01,1.90
2015,08,05,10,02,3.50
2015,08,05,10,03,0.60
2015,08,05,10,04,5.30
2015,08,05,10,05,4.60
2015,08,05,10,06,5.40
2015,08,05,10,07,2.30
2015,08,05,10,08,2.60
2015,08,05,10,09,3.40
2015,08,05,10,10,5.50
2015,08,05,10,11,4.50
2015,08,05,10,12,3.30
2015,08,05,10,13,1.60
2015,08,05,10,14,0.60
2015,08,05,10,15,11.70
2015,08,05,10,16,6.30
2015,08,05,10,17,11.20
2015,08,05,10,18,1.40
2015,08,05,10,19,9.50
2015,08,05,10,20,4.10
2015,08,05,10,21,8.00
2015,08,05,10,22,9.10
2015,08,05,10,23,10.00
2015,08,05,10,24,5.60
2015,08,05,10,25,0.40
2015,08,05,10,26,1.50
2015,08,05,10,27,6.70
2015,08,05,10,28,6.10
2015,08,05,10,29,1.90
2015,08,05,10,30,0.10
2015,08,05,10,31,1.20
2015,08,05,10,32,1.70
2015,08,05,10,33,1.80
2015,08,05,10,34,1.40
2015,08,05,10,35,3.50
2015,08,05,10,36,1.40
2015,08,05,10,37,4.20
2015,08,05,10,38,0.10
2015,08,05,10,39,0.10
2015,08,05,10,40,2.40
2015,08,05,10,41,1.10
2015,08,05,10,42,3.90
2015,08,05,10,43,1.00
2015,08,05,10,44,3.60
2015,08,05,10,45,5.00
2015,08,05,10,46,1.90
2015,08,05,10,47,6.50
2015,08,05,10,48,4.90
2015,08,05,10,49,0.00
2015,08,05,10,50,1.90
2015,08,05,10,51,3.80
2015,08,05,10,52,4.70
2015,08,05,10,53,2.30
2015,08,05,10,54,2.00
2015,08,05,10,55,5.60
2015,08,05,10,56,1.10
2015,08,05,10,57,1.00
2015,08,05,10,58,4.40
2015,08,05,10,59,0.10
2015,08,05,11,00,0.00
2015,08,05,11,01,0.50
2015,08,05,11,02,0.00
2015,08,05,11,03,0.00
2015,08,05,11,04,4.70
2015,08,05,11,05,5.60
2015,08,05,11,06,5.00
2015,08,05,11,07,2.50
2015,08,05,11,08,2.30
2015,08,05,11,09,5.40
2015,08,05,11,10,2.10
2015,08,05,11,11,3.80
2015,08,05,11,12,1.10
2015,08,05,11,13,2.70
2015,08,05,11,14,3.00
2015,08,05,11,15,0.60
2015,08,05,11,16,0.00
2015,08,05,11,17,0.00
2015,08,05,11,18,5.40
2015,08,05,11,19,0.80
2015,08,05,11,20,0.00
2015,08,05,11,21,1.40
2015,08,05,11,22,0.20
2015,08,05,11,23,0.60
2015,08,05,11,24,3.10
2015,08,05,11,25,0.00
2015,08,05,11,26,2.50
2015,08,05,11,27,3.90
2015,08,05,11,28,0.00
2015,08,05,11,29,1.10
2015,08,05,11,30,0.30
2015,08,05,11,31,0.00
2015,08,05,11,32,2.00
2015,08,05,11,33,6.40
2015,08,05,11,34,3.60
2015,08,05,11,35,3.10
2015,08,05,11,36,0.30
2015,08,05,11,37,0.00
2015,08,05,11,38,1.20
2015,08,05,11,39,2.20
2015,08,05,11,40,8.80
2015,08,05,11,41,7.60
2015,08,05,11,42,9.40
2015,08,05,11,43,0.10
2015,08,05,11,44,3.10
2015,08,05,11,45,3.10
2015,08,05,11,46,0.70
2015,08,05,11,47,0.50
2015,08,05,11,48,6.20
2015,08,05,11,49,2.70
2015,08,05,11,50,5.60
2015,08,05,11,51,0.60
2015,08,05,11,52,3.20
2015,08,05,11,53,3.50
2015,08,05,11,54,1.00
2015,08,05,11,55,0.00
2015,08,05,11,56,0.00
2015,08,05,11,57,0.60
2015,08,05,11,58,1.80
2015,08,05,11,59,6.00
2015,08,05,12,00,4.10
2015,08,05,12,01,3.70
2015,08,05,12,02,2.00
2015,08,05,12,03,1.20
2015,08,05,12,04,3.60
2015,08,05,12,05,7.80
2015,08,05,12,06,5.80
2015,08,05,12,07,3.40
2015,08,05,12,08,1.10
2015,08,05,12,09,4.90
2015,08,05,12,10,5.20
2015,08,05,12,11,0.50
2015,08,05,12,12,1.10
2015,08,05,12,13,5.10
2015,08,05,12,14,7.10
2015,08,05,12,15,9.30
2015,08,05,12,16,3.20
2015,08,05,12,17,2.30
2015,08,05,12,18,3.50
2015,08,05,12,19,5.00
2015,08,05,12,20,0.30
2015,08,05,12,21,0.20
2015,08,05,12,22,2.10
2015,08,05,12,23,3.20
2015,08,05,12,24,1.00
2015,08,05,12,25,6.90
2015,08,05,12,26,13.00
2015,08,05,12,27,6.30
2015,08,05,12,28,6.10
2015,08,05,12,29,5.20
2015,08,05,12,30,1.40
2015,08,05,12,31,0.00
2015,08,05,12,32,0.00
2015,08,05,12,33,2.20
2015,08,05,12,34,6.30
2015,08,05,12,35,8.90
2015,08,05,12,36,5.20
2015,08,05,12,37,1.00
2015,08,05,12,38,7.00
2015,08,05,12,39,4.00
2015,08,05,12,40,2.70
2015,08,05,12,41,0.40
2015,08,05,12,42,1.00
2015,08,05,12,43,9.00
2015,08,05,12,44,7.80
2015,08,05,12,45,6.20
2015,08,05,12,46,5.90
2015,08,05,12,47,3.10
2015,08,05,12,48,2.60
2015,08,05,12,49,3.60
2015,08,05,12,50,5.90
2015,08,05,12,51,1.90
2015,08,05,12,52,1.70
2015,08,05,12,53,3.40
2015,08,05,12,54,1.30
2015,08,05,12,55,0.20
2015,08,05,12,56,3.90
2015,08,05,12,57,5.20
2015,08,05,12,58,3.60
2015,08,05,12,59,0.10
2015,08,05,13,00,0.00
2015,08,05,13,01,8.00
2015,08,05,13,02,7.10
2015,08,05,13,03,0.40
2015,08,05,13,04,0.10
2015,08,05,13,05,4.20
2015,08,05,13,06,5.10
2015,08,05,13,07,5.60
2015,08,05,13,08,0.20
2015,08,05,13,09,4.70
2015,08,05,13,10,8.00
2015,08,05,13,11,5.90
2015,08,05,13,12,8.30
2015,08,05,13,13,9.80
2015,08,05,13,14,1.60
2015,08,05,13,15,4.00
2015,08,05,13,16,2.90
2015,08,05,13,17,6.80
2015,08,05,13,18,5.30
2015,08,05,13,19,2.30
2015,08,05,13,20,3.60
2015,08,05,13,21,5.60
2015,08,05,13,22,5.30
2015,08,05,13,23,12.10
2015,08,05,13,24,6.70
2015,08,05,13,25,2.70
2015,08,05,13,26,2.10
2015,08,05,13,27,2.30
2015,08,05,13,28,0.10
2015,08,05,13,29,0.00
2015,08,05,13,30,1.50
2015,08,05,13,31,4.10
2015,08,05,13,32,3.40
2015,08,05,13,33,5.20
2015,08,05,13,34,3.00
2015,08,05,13,35,4.00
2015,08,05,13,36,4.10
2015,08,05,13,37,0.30
2015,08,05,13,38,6.50
2015,08,05,13,39,8.30
2015,08,05,13,40,6.90
2015,08,05,13,41,4.80
2015,08,05,13,42,5.10
2015,08,05,13,43,8.10
2015,08,05,13,44,6.40
2015,08,05,13,45,12.60
2015,08,05,13,46,8.40
2015,08,05,13,47,4.20
2015,08,05,13,48,8.70
2015,08,05,13,49,6.50
2015,08,05,13,50,1.30
2015,08,05,13,51,1.90
2015,08,05,13,52,0.30
2015,08,05,13,53,1.20
2015,08,05,13,54,1.50
2015,08,05,13,55,2.60
2015,08,05,13,56,3.10
2015,08,05,13,57,7.40
2015,08,05,13,58,3.90
2015,08,05,13,59,1.00
2015,08,05,14,00,8.50
2015,08,05,14,01,4.10
2015,08,05,14,02,2.00
2015,08,05,14,03,0.70
2015,08,05,14,04,1.60
2015,08,05,14,05,8.40
2015,08,05,14,06,3.60
2015,08,05,14,07,7.10
2015,08,05,14,08,1.10
2015,08,05,14,09,6.40
2015,08,05,14,10,13.80
2015,08,05,14,11,13.30
2015,08,05,14,12,7.20
2015,08,05,14,13,5.00
2015,08,05,14,14,4.30
2015,08,05,14,15,5.50
2015,08,05,14,16,4.60
2015,08,05,14,17,3.80
2015,08,05,14,18,6.60
2015,08,05,14,19,0.20
2015,08,05,14,20,7.50
2015,08,05,14,21,6.80
2015,08,05,14,22,1.90
2015,08,05,14,23,0.10
2015,08,05,14,24,6.60
2015,08,05,14,25,2.80
2015,08,05,14,26,6.90
2015,08,05,14,27,5.60
2015,08,05,14,28,8.50
2015,08,05,14,29,13.00
2015,08,05,14,30,10.50
2015,08,05,14,31,3.70
2015,08,05,14,32,9.60
2015,08,05,14,33,7.60
2015,08,05,14,34,9.00
2015,08,05,14,35,3.70
2015,08,05,14,36,4.60
2015,08,05,14,37,5.50
2015,08,05,14,38,8.80
2015,08,05,14,39,4.60
2015,08,05,14,40,0.80
2015,08,05,14,41,0.40
2015,08,05,14,42,4.80
2015,08,05,14,43,2.70
2015,08,05,14,44,4.50
2015,08,05,14,45,4.00
2015,08,05,14,46,4.80
2015,08,05,14,47,5.50
2015,08,05,14,48,3.70
2015,08,05,14,49,7.00
2015,08,05,14,50,3.10
2015,08,05,14,51,2.80
2015,08,05,14,52,2.70
2015,08,05,14,53,3.80
2015,08,05,14,54,3.10
2015,08,05,14,55,2.20
2015,08,05,14,56,4.30
2015,08,05,14,57,11.90
2015,08,05,14,58,25.40
2015,08,05,14,59,8.00
2015,08,05,15,00,11.60
2015,08,05,15,01,11.90
2015,08,05,15,02,9.90
2015,08,05,15,03,5.50
2015,08,05,15,04,7.30
2015,08,05,15,05,6.10
2015,08,05,15,06,5.20
2015,08,05,15,07,4.00
2015,08,05,15,08,2.80
2015,08,05,15,09,7.60
2015,08,05,15,10,1.90
2015,08,05,15,11,1.30
2015,08,05,15,12,2.00
2015,08,05,15,13,5.60
2015,08,05,15,14,1.10
2015,08,05,15,15,1.30
2015,08,05,15,16,1.80
2015,08,05,15,17,6.10
2015,08,05,15,18,3.50
2015,08,05,15,19,3.40
2015,08,05,15,20,10.90
2015,08,05,15,21,8.40
2015,08,05,15,22,1.40
2015,08,05,15,23,2.80
2015,08,05,15,24,2.90
2015,08,05,15,25,6.10
2015,08,05,15,26,0.70
2015,08,05,15,27,3.10
2015,08,05,15,28,1.90
2015,08,05,15,29,7.10
2015,08,05,15,30,3.40
2015,08,05,15,31,2.90
2015,08,05,15,32,5.60
2015,08,05,15,33,11.60
2015,08,05,15,34,3.90
2015,08,05,15,35,5.50
2015,08,05,15,36,6.00
2015,08,05,15,37,4.80
2015,08,05,15,38,1.40
2015,08,05,15,39,0.90
2015,08,05,15,40,7.30
2015,08,05,15,41,9.00
2015,08,05,15,42,1.30
2015,08,05,15,43,4.60
2015,08,05,15,44,8.30
2015,08,05,15,45,3.70
2015,08,05,15,46,4.00
2015,08,05,15,47,8.10
2015,08,05,15,48,3.70
2015,08,05,15,49,6.00
2015,08,05,15,50,6.40
2015,08,05,15,51,5.10
2015,08,05,15,52,2.60
2015,08,05,15,53,0.70
2015,08,05,15,54,0.60
2015,08,05,15,55,5.90
2015,08,05,15,56,7.20
2015,08,05,15,57,5.20
2015,08,05,15,58,3.90
2015,08,05,15,59,6.00
2015,08,05,16,00,10.40
2015,08,05,16,01,14.40
2015,08,05,16,02,11.20
2015,08,05,16,03,13.10
2015,08,05,16,04,7.30
2015,08,05,16,05,2.30
2015,08,05,16,06,3.70
2015,08,05,16,07,4.10
2015,08,05,16,08,0.50
2015,08,05,16,09,10.10
2015,08,05,16,10,1.70
2015,08,05,16,11,3.60
2015,08,05,16,12,3.60
2015,08,05,16,13,6.40
2015,08,05,16,14,3.90
2015,08,05,16,15,7.60
2015,08,05,16,16,3.10
2015,08,05,16,17,1.00
2015,08,05,16,18,6.50
2015,08,05,16,19,3.40
2015,08,05,16,20,3.30
2015,08,05,16,21,3.90
2015,08,05,16,22,6.20
2015,08,05,16,23,3.30
2015,08,05,16,24,3.90
2015,08,05,16,25,2.30
2015,08,05,16,26,4.50
2015,08,05,16,27,4.10
2015,08,05,16,28,8.70
2015,08,05,16,29,4.50
2015,08,05,16,30,10.20
2015,08,05,16,31,4.00
2015,08,05,16,32,8.70
2015,08,05,16,33,3.10
2015,08,05,16,34,9.00
2015,08,05,16,35,3.40
2015,08,05,16,36,6.50
2015,08,05,16,37,2.80
2015,08,05,16,38,3.40
2015,08,05,16,39,2.50
2015,08,05,16,40,10.90
2015,08,05,16,41,4.20
2015,08,05,16,42,4.80
2015,08,05,16,43,1.00
2015,08,05,16,44,4.70
2015,08,05,16,45,6.60
2015,08,05,16,46,5.00
2015,08,05,16,47,6.40
2015,08,05,16,48,7.20
2015,08,05,16,49,9.90
2015,08,05,16,50,3.30
2015,08,05,16,51,4.20
2015,08,05,16,52,3.70
2015,08,05,16,53,8.30
2015,08,05,16,54,10.50
2015,08,05,16,55,16.10
2015,08,05,16,56,15.30
2015,08,05,16,57,0.70
2015,08,05,16,58,6.30
2015,08,05,16,59,6.20
2015,08,05,17,00,6.80
2015,08,05,17,01,4.30
2015,08,05,17,02,4.30
2015,08,05,17,03,1.40
2015,08,05,17,04,0.00
2015,08,05,17,05,1.20
2015,08,05,17,06,1.70
2015,08,05,17,07,3.90
2015,08,05,17,08,5.10
2015,08,05,17,09,10.10
2015,08,05,17,10,2.70
2015,08,05,17,11,9.00
2015,08,05,17,12,11.40
2015,08,05,17,13,12.80
2015,08,05,17,14,10.60
2015,08,05,17,15,2.60
2015,08,05,17,16,1.70
2015,08,05,17,17,9.70
2015,08,05,17,18,9.50
2015,08,05,17,19,13.40
2015,08,05,17,20,8.00
2015,08,05,17,21,8.70
2015,08,05,17,22,9.60
2015,08,05,17,23,10.60
2015,08,05,17,24,10.60
2015,08,05,17,25,15.40
2015,08,05,17,26,15.90
2015,08,05,17,27,12.90
2015,08,05,17,28,10.70
2015,08,05,17,29,6.00
2015,08,05,17,30,7.90
2015,08,05,17,31,7.60
2015,08,05,17,32,6.00
2015,08,05,17,33,7.80
2015,08,05,17,34,14.60
2015,08,05,17,35,7.10
2015,08,05,17,36,2.70
2015,08,05,17,37,9.80
2015,08,05,17,38,6.60
2015,08,05,17,39,16.10
2015,08,05,17,40,11.30
2015,08,05,17,41,5.30
2015,08,05,17,42,6.10
2015,08,05,17,43,4.50
2015,08,05,17,44,8.90
2015,08,05,17,45,21.80
2015,08,05,17,46,4.50
2015,08,05,17,47,7.10
2015,08,05,17,48,5.90
2015,08,05,17,49,4.10
2015,08,05,17,50,2.00
2015,08,05,17,51,3.70
2015,08,05,17,52,5.10
2015,08,05,17,53,5.80
2015,08,05,17,54,2.60
2015,08,05,17,55,5.10
2015,08,05,17,56,5.60
2015,08,05,17,57,3.60
2015,08,05,17,58,7.10
2015,08,05,17,59,9.30
2015,08,05,18,00,8.90
2015,08,05,18,01,6.20
2015,08,05,18,02,8.20
2015,08,05,18,03,7.40
2015,08,05,18,04,3.50